,,Stat5,,Stat1,,Stat2,,Stat3,,Stat4,,Wind1,,Wind1,
time,status,PA1M_AVG,status,PR1M_SUM,status,RH1M_AVG,status,SR1M_AVG,status,TA1M_AVG,status,W1dAve1m,status,W1sAve1m,
2002-02-06, 00:00:00,VALID,919.113,VALID,0,VALID,97.9174,VALID,0.0339617,VALID,19.2224,VALID,146,VALID,0.850977,
2002-02-06, 00:01:00,VALID,919.111,VALID,0,VALID,97.9441,VALID,-0.0169808,VALID,19.2152,VALID,135,VALID,0.730859,
2002-02-06, 00:02:00,VALID,919.09,VALID,0,VALID,97.9136,VALID,0.0169808,VALID,19.2251,VALID,129,VALID,0.841346,
2002-02-06, 00:03:00,VALID,919.079,VALID,0,VALID,97.8729,VALID,-0.0169808,VALID,19.2254,VALID,120,VALID,0.590255,
2002-02-06, 00:04:00,VALID,919.058,VALID,0,VALID,97.8627,VALID,0.0169808,VALID,19.209,VALID,128,VALID,0.898438,
2002-02-06, 00:05:00,VALID,919.032,VALID,0,VALID,97.85,VALID,0.0339617,VALID,19.2222,VALID,127,VALID,0.455078,
2002-02-06, 00:06:00,VALID,919.02,VALID,0,VALID,97.8296,VALID,0.0339617,VALID,19.2289,VALID,132,VALID,0.761719,
2002-02-06, 00:07:00,VALID,919.008,VALID,0,VALID,97.8144,VALID,0.0169808,VALID,19.2289,VALID,143,VALID,1.07689,
2002-02-06, 00:08:00,VALID,919.009,VALID,0,VALID,97.8207,VALID,-0.0169808,VALID,19.2348,VALID,139,VALID,1.00324,
2002-02-06, 00:09:00,VALID,918.999,VALID,0,VALID,97.8144,VALID,-0.101885,VALID,19.2624,VALID,142,VALID,1.07011,
2002-02-06, 00:10:00,VALID,918.996,VALID,0,VALID,97.7317,VALID,-0.0679233,VALID,19.2626,VALID,134,VALID,1.0359,
2002-02-06, 00:11:00,VALID,918.992,VALID,0,VALID,97.6503,VALID,-0.101885,VALID,19.2591,VALID,145,VALID,1.02796,
2002-02-06, 00:12:00,VALID,918.978,VALID,0,VALID,97.5715,VALID,-0.0849042,VALID,19.2527,VALID,118,VALID,1.33705,
2002-02-06, 00:13:00,VALID,918.978,VALID,0,VALID,97.4888,VALID,-0.0849042,VALID,19.2328,VALID,115,VALID,1.24839,
2002-02-06, 00:14:00,VALID,918.979,VALID,0,VALID,97.4583,VALID,-0.0509425,VALID,19.2398,VALID,119,VALID,1.12843,
2002-02-06, 00:15:00,VALID,918.982,VALID,0,VALID,97.2854,VALID,-0.0849042,VALID,19.2296,VALID,132,VALID,1.54147,
2002-02-06, 00:16:00,VALID,918.97,VALID,0,VALID,97.087,VALID,-0.101885,VALID,19.2075,VALID,122,VALID,1.36038,
2002-02-06, 00:17:00,VALID,918.966,VALID,0,VALID,96.9281,VALID,-0.0679233,VALID,19.1747,VALID,115,VALID,1.647,
2002-02-06, 00:18:00,VALID,918.934,VALID,0,VALID,96.7322,VALID,-0.0509425,VALID,19.1717,VALID,124,VALID,1.51149,
2002-02-06, 00:19:00,VALID,918.917,VALID,0,VALID,96.3838,VALID,-0.0339617,VALID,19.1618,VALID,113,VALID,1.28624,
2002-02-06, 00:20:00,VALID,918.9,VALID,0,VALID,96.1867,VALID,-0.0509425,VALID,19.1458,VALID,112,VALID,1.07765,
2002-02-06, 00:21:00,VALID,918.902,VALID,0,VALID,96.015,VALID,-0.0679233,VALID,19.1295,VALID,119,VALID,1.27745,
2002-02-06, 00:22:00,VALID,918.902,VALID,0,VALID,95.879,VALID,-0.101885,VALID,19.1198,VALID,134,VALID,1.25919,
2002-02-06, 00:23:00,VALID,918.879,VALID,0,VALID,95.8319,VALID,-0.0679233,VALID,19.1073,VALID,127,VALID,1.20017,
2002-02-06, 00:24:00,VALID,918.866,VALID,0,VALID,95.8942,VALID,-0.0849042,VALID,19.1165,VALID,131,VALID,1.17619,
2002-02-06, 00:25:00,VALID,918.854,VALID,0,VALID,95.8447,VALID,-0.0339617,VALID,19.117,VALID,120,VALID,0.949424,
2002-02-06, 00:26:00,VALID,918.836,VALID,0,VALID,95.8103,VALID,-0.0679233,VALID,19.12,VALID,127,VALID,1.09576,
2002-02-06, 00:27:00,VALID,918.814,VALID,0,VALID,95.8777,VALID,-0.0849042,VALID,19.1106,VALID,130,VALID,0.977196,
2002-02-06, 00:28:00,VALID,918.785,VALID,0,VALID,95.8027,VALID,-0.0849042,VALID,19.1106,VALID,111,VALID,0.975873,
2002-02-06, 00:29:00,VALID,918.779,VALID,0,VALID,95.7366,VALID,-0.0509425,VALID,19.1076,VALID,116,VALID,0.951436,
2002-02-06, 00:30:00,VALID,918.786,VALID,0,VALID,95.7925,VALID,-0.0339617,VALID,19.0745,VALID,122,VALID,1.06592,
2002-02-06, 00:31:00,VALID,918.79,VALID,0,VALID,95.879,VALID,-0.0509425,VALID,19.0621,VALID,144,VALID,0.849559,
2002-02-06, 00:32:00,VALID,918.796,VALID,0,VALID,96.0913,VALID,-0.0509425,VALID,19.0457,VALID,143,VALID,1.29598,
2002-02-06, 00:33:00,VALID,918.797,VALID,0,VALID,96.2427,VALID,-0.0679233,VALID,19.0554,VALID,129,VALID,1.62542,
2002-02-06, 00:34:00,VALID,918.797,VALID,0,VALID,96.2363,VALID,-0.0849042,VALID,19.0524,VALID,137,VALID,1.0864,
2002-02-06, 00:35:00,VALID,918.792,VALID,0,VALID,96.3075,VALID,-0.0849042,VALID,19.0524,VALID,137,VALID,1.56609,
2002-02-06, 00:36:00,VALID,918.801,VALID,0,VALID,96.3355,VALID,-0.0509425,VALID,19.0561,VALID,132,VALID,1.42578,
2002-02-06, 00:37:00,VALID,918.785,VALID,0,VALID,96.2834,VALID,-0.101885,VALID,19.0559,VALID,131,VALID,0.6875,
2002-02-06, 00:38:00,VALID,918.781,VALID,0,VALID,96.3151,VALID,-0.0679233,VALID,19.0621,VALID,121,VALID,0.817187,
2002-02-06, 00:39:00,VALID,918.766,VALID,0,VALID,96.3991,VALID,0.0169808,VALID,19.0669,VALID,130,VALID,0.788851,
2002-02-06, 00:40:00,VALID,918.766,VALID,0,VALID,96.3749,VALID,0.0169808,VALID,19.0674,VALID,127,VALID,0.648438,
2002-02-06, 00:41:00,VALID,918.764,VALID,0,VALID,96.4194,VALID,0,VALID,19.0537,VALID,142,VALID,0.885557,
2002-02-06, 00:42:00,VALID,918.741,VALID,0,VALID,96.4741,VALID,0.0339617,VALID,19.0644,VALID,143,VALID,0.866943,
2002-02-06, 00:43:00,VALID,918.758,VALID,0,VALID,96.4932,VALID,0.0339617,VALID,19.0607,VALID,130,VALID,0.933694,
2002-02-06, 00:44:00,VALID,918.744,VALID,0,VALID,96.6114,VALID,0.0339617,VALID,19.0572,VALID,130,VALID,0.825223,
2002-02-06, 00:45:00,VALID,918.726,VALID,0,VALID,96.6356,VALID,0.0169808,VALID,19.0644,VALID,123,VALID,1.16195,
2002-02-06, 00:46:00,VALID,918.703,VALID,0,VALID,96.8492,VALID,0,VALID,19.0738,VALID,142,VALID,1.19416,
2002-02-06, 00:47:00,VALID,918.678,VALID,0,VALID,97.0667,VALID,0.0339617,VALID,19.1061,VALID,126,VALID,1.4584,
2002-02-06, 00:48:00,VALID,918.668,VALID,0,VALID,97.0781,VALID,0,VALID,19.1483,VALID,131,VALID,1.04502,
2002-02-06, 00:49:00,VALID,918.646,VALID,0,VALID,97.0959,VALID,0.0169808,VALID,19.1638,VALID,137,VALID,1.54071,
2002-02-06, 00:50:00,VALID,918.627,VALID,0,VALID,97.1582,VALID,0,VALID,19.2383,VALID,137,VALID,1.61406,
2002-02-06, 00:51:00,VALID,918.615,VALID,0,VALID,96.8187,VALID,0,VALID,19.2872,VALID,127,VALID,1.30321,
2002-02-06, 00:52:00,VALID,918.6,VALID,0,VALID,96.5402,VALID,0.0339617,VALID,19.2932,VALID,118,VALID,1.26034,
2002-02-06, 00:53:00,VALID,918.569,VALID,0,VALID,96.3164,VALID,-0.0339617,VALID,19.3002,VALID,120,VALID,1.07728,
2002-02-06, 00:54:00,VALID,918.543,VALID,0,VALID,96.216,VALID,-0.101885,VALID,19.3048,VALID,123,VALID,1.00293,
2002-02-06, 00:55:00,VALID,918.521,VALID,0,VALID,96.3113,VALID,-0.0849042,VALID,19.3081,VALID,131,VALID,1.42989,
2002-02-06, 00:56:00,VALID,918.519,VALID,0,VALID,96.1854,VALID,-0.0679233,VALID,19.3235,VALID,142,VALID,1.3875,
2002-02-06, 00:57:00,VALID,918.486,VALID,0,VALID,96.099,VALID,-0.0849042,VALID,19.3401,VALID,121,VALID,1.1628,
2002-02-06, 00:58:00,VALID,918.476,VALID,0,VALID,96.0341,VALID,-0.101885,VALID,19.3623,VALID,112,VALID,1.37546,
2002-02-06, 00:59:00,VALID,918.469,VALID,0,VALID,95.7366,VALID,-0.0849042,VALID,19.3625,VALID,112,VALID,0.865498,
2002-02-06, 01:00:00,VALID,918.476,VALID,0,VALID,95.7302,VALID,-0.0679233,VALID,19.3757,VALID,109,VALID,1.08532,
2002-02-06, 01:01:00,VALID,918.479,VALID,0,VALID,95.6425,VALID,-0.0849042,VALID,19.369,VALID,118,VALID,1.00247,
2002-02-06, 01:02:00,VALID,918.474,VALID,0,VALID,95.5738,VALID,-0.0679233,VALID,19.3496,VALID,122,VALID,1.11317,
2002-02-06, 01:03:00,VALID,918.463,VALID,0,VALID,95.5191,VALID,-0.0679233,VALID,19.3265,VALID,115,VALID,1.24873,
2002-02-06, 01:04:00,VALID,918.447,VALID,0,VALID,95.467,VALID,-0.0849042,VALID,19.3076,VALID,114,VALID,1.42509,
2002-02-06, 01:05:00,VALID,918.426,VALID,0,VALID,95.4861,VALID,-0.0849042,VALID,19.2852,VALID,98,VALID,1.20693,
2002-02-06, 01:06:00,VALID,918.397,VALID,0,VALID,95.4403,VALID,-0.0849042,VALID,19.2788,VALID,55,VALID,1.00439,
2002-02-06, 01:07:00,VALID,918.383,VALID,0,VALID,95.2521,VALID,-0.0849042,VALID,19.2398,VALID,121,VALID,1.17127,
2002-02-06, 01:08:00,VALID,918.377,VALID,0,VALID,95.1046,VALID,-0.0339617,VALID,19.2104,VALID,73,VALID,1.05313,
2002-02-06, 01:09:00,VALID,918.375,VALID,0,VALID,94.9609,VALID,0.0339617,VALID,19.1866,VALID,101,VALID,1.05954,
2002-02-06, 01:10:00,VALID,918.38,VALID,0,VALID,94.7879,VALID,0.0169808,VALID,19.1543,VALID,117,VALID,1.2006,
2002-02-06, 01:11:00,VALID,918.377,VALID,0,VALID,94.7714,VALID,0.0509425,VALID,19.1282,VALID,131,VALID,1.04582,
2002-02-06, 01:12:00,VALID,918.362,VALID,0,VALID,94.849,VALID,0,VALID,19.1253,VALID,143,VALID,1.21505,
2002-02-06, 01:13:00,VALID,918.348,VALID,0,VALID,94.8401,VALID,0,VALID,19.1091,VALID,125,VALID,1.54235,
2002-02-06, 01:14:00,VALID,918.326,VALID,0,VALID,94.8579,VALID,0.0169808,VALID,19.1059,VALID,123,VALID,1.15826,
2002-02-06, 01:15:00,VALID,918.316,VALID,0,VALID,94.8566,VALID,0.0339617,VALID,19.1066,VALID,120,VALID,1.00823,
2002-02-06, 01:16:00,VALID,918.309,VALID,0,VALID,94.9126,VALID,0.0169808,VALID,19.0999,VALID,127,VALID,0.943474,
2002-02-06, 01:17:00,VALID,918.315,VALID,0,VALID,95.0117,VALID,0.0339617,VALID,19.0865,VALID,132,VALID,1.42061,
2002-02-06, 01:18:00,VALID,918.319,VALID,0,VALID,95.0969,VALID,0.0169808,VALID,19.0964,VALID,132,VALID,1.33521,
2002-02-06, 01:19:00,VALID,918.322,VALID,0,VALID,95.0372,VALID,0.0169808,VALID,19.1059,VALID,129,VALID,1.01202,
2002-02-06, 01:20:00,VALID,918.327,VALID,0,VALID,94.9761,VALID,0.0169808,VALID,19.1225,VALID,138,VALID,0.860045,
2002-02-06, 01:21:00,VALID,918.332,VALID,0,VALID,94.9723,VALID,0,VALID,19.119,VALID,129,VALID,0.720228,
2002-02-06, 01:22:00,VALID,918.317,VALID,0,VALID,94.9723,VALID,0.0339617,VALID,19.1257,VALID,118,VALID,0.809513,
2002-02-06, 01:23:00,VALID,918.307,VALID,0,VALID,94.9939,VALID,0,VALID,19.1322,VALID,112,VALID,0.872677,
2002-02-06, 01:24:00,VALID,918.279,VALID,0,VALID,94.9698,VALID,0.0169808,VALID,19.132,VALID,126,VALID,1.01131,
2002-02-06, 01:25:00,VALID,918.267,VALID,0,VALID,95.0041,VALID,0,VALID,19.1295,VALID,127,VALID,0.85259,
2002-02-06, 01:26:00,VALID,918.244,VALID,0,VALID,95.0524,VALID,0,VALID,19.1066,VALID,105,VALID,0.44308,
2002-02-06, 01:27:00,VALID,918.236,VALID,0,VALID,95.0219,VALID,0.0169808,VALID,19.1096,VALID,119,VALID,0.820524,
2002-02-06, 01:28:00,VALID,918.227,VALID,0,VALID,95.2801,VALID,0.0169808,VALID,19.1026,VALID,132,VALID,1.28768,
2002-02-06, 01:29:00,VALID,918.217,VALID,0,VALID,95.3309,VALID,0.0339617,VALID,19.1188,VALID,141,VALID,0.833404,
2002-02-06, 01:30:00,VALID,918.218,VALID,0,VALID,95.3589,VALID,0.0509425,VALID,19.1384,VALID,149,VALID,1.05908,
2002-02-06, 01:31:00,VALID,918.19,VALID,0,VALID,95.3246,VALID,0.0339617,VALID,19.1613,VALID,164,VALID,0.563101,
2002-02-06, 01:32:00,VALID,918.17,VALID,0,VALID,95.2775,VALID,0.0509425,VALID,19.1675,VALID,136,VALID,0.363616,
2002-02-06, 01:33:00,VALID,918.168,VALID,0,VALID,95.1427,VALID,0,VALID,19.1647,VALID,128,VALID,0.263936,
2002-02-06, 01:34:00,VALID,918.162,VALID,0,VALID,95.0766,VALID,0.0339617,VALID,19.1516,VALID,145,VALID,0.606618,
2002-02-06, 01:35:00,VALID,918.146,VALID,0,VALID,95.1275,VALID,0.0509425,VALID,19.129,VALID,136,VALID,0.622889,
2002-02-06, 01:36:00,VALID,918.147,VALID,0,VALID,95.1949,VALID,0.0339617,VALID,19.119,VALID,135,VALID,0.746299,
2002-02-06, 01:37:00,VALID,918.148,VALID,0,VALID,95.2597,VALID,0.0169808,VALID,19.1193,VALID,146,VALID,0.588199,
2002-02-06, 01:38:00,VALID,918.14,VALID,0,VALID,95.3742,VALID,0.0509425,VALID,19.0997,VALID,127,VALID,0.612054,
2002-02-06, 01:39:00,VALID,918.119,VALID,0,VALID,95.5039,VALID,0.0339617,VALID,19.1086,VALID,125,VALID,0.848818,
2002-02-06, 01:40:00,VALID,918.113,VALID,0,VALID,95.6221,VALID,0.0339617,VALID,19.1225,VALID,137,VALID,0.775276,
2002-02-06, 01:41:00,VALID,918.095,VALID,0,VALID,95.6234,VALID,0,VALID,19.1287,VALID,121,VALID,0.694257,
2002-02-06, 01:42:00,VALID,918.086,VALID,0,VALID,95.6654,VALID,0.0849042,VALID,19.119,VALID,144,VALID,1.1792,
2002-02-06, 01:43:00,VALID,918.08,VALID,0,VALID,95.7188,VALID,0.0679233,VALID,19.1183,VALID,135,VALID,1.04708,
2002-02-06, 01:44:00,VALID,918.066,VALID,0,VALID,95.7493,VALID,0.0679233,VALID,19.132,VALID,140,VALID,0.883259,
2002-02-06, 01:45:00,VALID,918.072,VALID,0,VALID,95.8179,VALID,0.0679233,VALID,19.1347,VALID,130,VALID,1.16997,
2002-02-06, 01:46:00,VALID,918.073,VALID,0,VALID,95.7467,VALID,0.101885,VALID,19.1412,VALID,128,VALID,1.45565,
2002-02-06, 01:47:00,VALID,918.067,VALID,0,VALID,95.7569,VALID,0.0169808,VALID,19.1513,VALID,149,VALID,1.17546,
2002-02-06, 01:48:00,VALID,918.058,VALID,0,VALID,95.7684,VALID,0.0509425,VALID,19.1382,VALID,147,VALID,1.23088,
2002-02-06, 01:49:00,VALID,918.033,VALID,0,VALID,95.7073,VALID,0.0509425,VALID,19.1285,VALID,141,VALID,1.34807,
2002-02-06, 01:50:00,VALID,918.021,VALID,0,VALID,95.7696,VALID,0.0169808,VALID,19.1188,VALID,151,VALID,1.38661,
2002-02-06, 01:51:00,VALID,918.007,VALID,0,VALID,95.6997,VALID,0.0339617,VALID,19.1059,VALID,144,VALID,1.17462,
2002-02-06, 01:52:00,VALID,917.985,VALID,0,VALID,95.6692,VALID,0,VALID,19.0872,VALID,152,VALID,1.24311,
2002-02-06, 01:53:00,VALID,917.969,VALID,0,VALID,95.7544,VALID,-0.0169808,VALID,19.0614,VALID,147,VALID,1.22889,
2002-02-06, 01:54:00,VALID,917.947,VALID,0,VALID,95.8714,VALID,-0.0849042,VALID,19.0457,VALID,145,VALID,1.62549,
2002-02-06, 01:55:00,VALID,917.929,VALID,0,VALID,95.9209,VALID,-0.0509425,VALID,19.046,VALID,141,VALID,1.53746,
2002-02-06, 01:56:00,VALID,917.915,VALID,0,VALID,95.9604,VALID,-0.0849042,VALID,19.0395,VALID,145,VALID,1.48638,
2002-02-06, 01:57:00,VALID,917.881,VALID,0,VALID,95.9642,VALID,-0.0339617,VALID,19.0263,VALID,151,VALID,1.17715,
2002-02-06, 01:58:00,VALID,917.869,VALID,0,VALID,95.9273,VALID,-0.0849042,VALID,19.0298,VALID,139,VALID,1.28998,
2002-02-06, 01:59:00,VALID,917.859,VALID,0,VALID,95.9833,VALID,-0.0509425,VALID,19,VALID,149,VALID,1.41681,
2002-02-06, 02:00:00,VALID,917.854,VALID,0,VALID,95.9947,VALID,-0.0339617,VALID,19.0042,VALID,148,VALID,1.1028,
2002-02-06, 02:01:00,VALID,917.85,VALID,0,VALID,95.9629,VALID,-0.0849042,VALID,19.001,VALID,148,VALID,1.65317,
2002-02-06, 02:02:00,VALID,917.841,VALID,0,VALID,95.9248,VALID,-0.0339617,VALID,18.9943,VALID,148,VALID,1.74487,
2002-02-06, 02:03:00,VALID,917.842,VALID,0,VALID,95.9298,VALID,-0.0849042,VALID,18.9913,VALID,142,VALID,1.29244,
2002-02-06, 02:04:00,VALID,917.836,VALID,0,VALID,95.8701,VALID,-0.0679233,VALID,18.9843,VALID,146,VALID,1.2886,
2002-02-06, 02:05:00,VALID,917.836,VALID,0,VALID,95.6857,VALID,-0.0679233,VALID,18.9943,VALID,144,VALID,1.58235,
2002-02-06, 02:06:00,VALID,917.832,VALID,0,VALID,95.5115,VALID,-0.0509425,VALID,18.9977,VALID,144,VALID,1.07153,
2002-02-06, 02:07:00,VALID,917.841,VALID,0,VALID,95.4924,VALID,-0.0679233,VALID,18.9943,VALID,132,VALID,1.03726,
2002-02-06, 02:08:00,VALID,917.834,VALID,0,VALID,95.4517,VALID,-0.0169808,VALID,18.994,VALID,131,VALID,0.695089,
2002-02-06, 02:09:00,VALID,917.837,VALID,0,VALID,95.4835,VALID,-0.0509425,VALID,18.9906,VALID,118,VALID,0.897593,
2002-02-06, 02:10:00,VALID,917.825,VALID,0,VALID,95.5509,VALID,-0.0849042,VALID,19.0077,VALID,120,VALID,0.774357,
2002-02-06, 02:11:00,VALID,917.809,VALID,0,VALID,95.5713,VALID,-0.0679233,VALID,18.994,VALID,111,VALID,0.956292,
2002-02-06, 02:12:00,VALID,917.786,VALID,0,VALID,95.6526,VALID,-0.0509425,VALID,19.0037,VALID,107,VALID,0.840872,
2002-02-06, 02:13:00,VALID,917.769,VALID,0,VALID,95.6704,VALID,-0.0679233,VALID,18.9908,VALID,121,VALID,0.884663,
2002-02-06, 02:14:00,VALID,917.773,VALID,0,VALID,95.7238,VALID,-0.0849042,VALID,19.0037,VALID,119,VALID,0.933929,
2002-02-06, 02:15:00,VALID,917.753,VALID,0,VALID,95.7734,VALID,-0.0509425,VALID,19.0037,VALID,129,VALID,0.823057,
2002-02-06, 02:16:00,VALID,917.744,VALID,0,VALID,95.7874,VALID,-0.0849042,VALID,19.0072,VALID,147,VALID,1.07996,
2002-02-06, 02:17:00,VALID,917.731,VALID,0,VALID,95.7327,VALID,-0.0509425,VALID,19.0169,VALID,117,VALID,0.62859,
2002-02-06, 02:18:00,VALID,917.72,VALID,0,VALID,95.687,VALID,-0.0169808,VALID,19.0104,VALID,111,VALID,0.564453,
2002-02-06, 02:19:00,VALID,917.7,VALID,0,VALID,95.7226,VALID,-0.0169808,VALID,18.994,VALID,91,VALID,0.857572,
2002-02-06, 02:20:00,VALID,917.683,VALID,0,VALID,95.715,VALID,-0.0679233,VALID,18.9975,VALID,129,VALID,0.681027,
2002-02-06, 02:21:00,VALID,917.676,VALID,0,VALID,95.8548,VALID,-0.0679233,VALID,19.0005,VALID,149,VALID,1.0638,
2002-02-06, 02:22:00,VALID,917.658,VALID,0,VALID,95.8586,VALID,-0.0849042,VALID,19.0067,VALID,149,VALID,1.19095,
2002-02-06, 02:23:00,VALID,917.65,VALID,0,VALID,95.7887,VALID,-0.0169808,VALID,19.0422,VALID,144,VALID,1.33361,
2002-02-06, 02:24:00,VALID,917.653,VALID,0,VALID,95.6882,VALID,0.0509425,VALID,19.0507,VALID,137,VALID,0.768709,
2002-02-06, 02:25:00,VALID,917.67,VALID,0,VALID,95.5878,VALID,0.0509425,VALID,19.0671,VALID,140,VALID,0.831414,
2002-02-06, 02:26:00,VALID,917.664,VALID,0,VALID,95.5471,VALID,0.0509425,VALID,19.0604,VALID,138,VALID,1.12723,
2002-02-06, 02:27:00,VALID,917.673,VALID,0,VALID,95.4733,VALID,0.0509425,VALID,19.0637,VALID,144,VALID,1.06567,
2002-02-06, 02:28:00,VALID,917.678,VALID,0,VALID,95.4861,VALID,0.0339617,VALID,19.0639,VALID,148,VALID,1.33571,
2002-02-06, 02:29:00,VALID,917.668,VALID,0,VALID,95.4695,VALID,0.0339617,VALID,19.0775,VALID,150,VALID,1.55891,
2002-02-06, 02:30:00,VALID,917.662,VALID,0,VALID,95.5,VALID,0.0339617,VALID,19.0706,VALID,145,VALID,1.02368,
2002-02-06, 02:31:00,VALID,917.65,VALID,0,VALID,95.5,VALID,0.0339617,VALID,19.0733,VALID,155,VALID,1.17608,
2002-02-06, 02:32:00,VALID,917.646,VALID,0,VALID,95.4581,VALID,0.0169808,VALID,19.0736,VALID,147,VALID,1.01652,
2002-02-06, 02:33:00,VALID,917.619,VALID,0,VALID,95.5178,VALID,0.0339617,VALID,19.0803,VALID,141,VALID,1.14633,
2002-02-06, 02:34:00,VALID,917.612,VALID,0,VALID,95.5204,VALID,0.0339617,VALID,19.0763,VALID,149,VALID,1.04825,
2002-02-06, 02:35:00,VALID,917.595,VALID,0,VALID,95.5039,VALID,0.0509425,VALID,19.0897,VALID,140,VALID,1.17905,
2002-02-06, 02:36:00,VALID,917.579,VALID,0,VALID,95.5026,VALID,0.0339617,VALID,19.0925,VALID,141,VALID,0.766447,
2002-02-06, 02:37:00,VALID,917.563,VALID,0,VALID,95.5089,VALID,0.0339617,VALID,19.0962,VALID,139,VALID,0.942023,
2002-02-06, 02:38:00,VALID,917.558,VALID,0,VALID,95.4288,VALID,0,VALID,19.1001,VALID,139,VALID,0.690179,
2002-02-06, 02:39:00,VALID,917.546,VALID,0,VALID,95.4034,VALID,-0.0679233,VALID,19.081,VALID,151,VALID,0.815667,
2002-02-06, 02:40:00,VALID,917.545,VALID,0,VALID,95.3983,VALID,-0.0509425,VALID,19.0914,VALID,130,VALID,0.471048,
2002-02-06, 02:41:00,VALID,917.536,VALID,0,VALID,95.3513,VALID,-0.0509425,VALID,19.0815,VALID,158,VALID,0.342272,
2002-02-06, 02:42:00,VALID,917.52,VALID,0,VALID,95.378,VALID,0,VALID,19.075,VALID,154,VALID,0.260742,
2002-02-06, 02:43:00,VALID,917.512,VALID,0,VALID,95.2712,VALID,-0.0169808,VALID,19.0489,VALID,109,VALID,0.275841,
2002-02-06, 02:44:00,VALID,917.485,VALID,0,VALID,95.2839,VALID,-0.0169808,VALID,19.0293,VALID,140,VALID,0.274777,
2002-02-06, 02:45:00,VALID,917.464,VALID,0,VALID,95.4492,VALID,0,VALID,19.0035,VALID,151,VALID,0.683488,
2002-02-06, 02:46:00,VALID,917.454,VALID,0,VALID,95.5217,VALID,-0.0509425,VALID,18.9906,VALID,151,VALID,0.863281,
2002-02-06, 02:47:00,VALID,917.43,VALID,0,VALID,95.6882,VALID,-0.0509425,VALID,18.9846,VALID,154,VALID,1.19996,
2002-02-06, 02:48:00,VALID,917.413,VALID,0,VALID,95.7556,VALID,-0.0849042,VALID,18.9814,VALID,152,VALID,1.06024,
2002-02-06, 02:49:00,VALID,917.395,VALID,0,VALID,95.7442,VALID,-0.0679233,VALID,18.9682,VALID,147,VALID,0.979441,
2002-02-06, 02:50:00,VALID,917.383,VALID,0,VALID,95.8192,VALID,-0.0849042,VALID,18.9691,VALID,152,VALID,1.14353,
2002-02-06, 02:51:00,VALID,917.358,VALID,0,VALID,95.8688,VALID,-0.0679233,VALID,18.9654,VALID,154,VALID,1.07052,
2002-02-06, 02:52:00,VALID,917.348,VALID,0,VALID,95.8866,VALID,-0.0849042,VALID,18.9558,VALID,156,VALID,1.13603,
2002-02-06, 02:53:00,VALID,917.341,VALID,0,VALID,95.9031,VALID,-0.101885,VALID,18.952,VALID,149,VALID,1.0076,
2002-02-06, 02:54:00,VALID,917.318,VALID,0,VALID,95.8218,VALID,-0.0849042,VALID,18.9431,VALID,149,VALID,0.876709,
2002-02-06, 02:55:00,VALID,917.304,VALID,0,VALID,95.8942,VALID,-0.0849042,VALID,18.9262,VALID,136,VALID,0.932692,
2002-02-06, 02:56:00,VALID,917.291,VALID,0,VALID,95.8459,VALID,-0.0849042,VALID,18.9103,VALID,146,VALID,1.08504,
2002-02-06, 02:57:00,VALID,917.272,VALID,0,VALID,95.9426,VALID,-0.101885,VALID,18.9073,VALID,143,VALID,1.0228,
2002-02-06, 02:58:00,VALID,917.266,VALID,0,VALID,95.9756,VALID,-0.101885,VALID,18.9043,VALID,137,VALID,1.01149,
2002-02-06, 02:59:00,VALID,917.245,VALID,0,VALID,96.0189,VALID,-0.101885,VALID,18.8944,VALID,135,VALID,0.8106,
2002-02-06, 03:00:00,VALID,917.224,VALID,0,VALID,96.1626,VALID,-0.0339617,VALID,18.8847,VALID,127,VALID,0.873561,
2002-02-06, 03:01:00,VALID,917.215,VALID,0,VALID,96.2745,VALID,-0.0509425,VALID,18.8976,VALID,129,VALID,0.774877,
2002-02-06, 03:02:00,VALID,917.204,VALID,0,VALID,96.2859,VALID,-0.0849042,VALID,18.9075,VALID,132,VALID,0.859598,
2002-02-06, 03:03:00,VALID,917.189,VALID,0,VALID,96.2503,VALID,-0.0849042,VALID,18.8842,VALID,138,VALID,0.91913,
2002-02-06, 03:04:00,VALID,917.176,VALID,0,VALID,96.235,VALID,-0.101885,VALID,18.8944,VALID,140,VALID,0.763327,
2002-02-06, 03:05:00,VALID,917.161,VALID,0,VALID,96.1867,VALID,-0.0849042,VALID,18.8782,VALID,133,VALID,0.657728,
2002-02-06, 03:06:00,VALID,917.15,VALID,0,VALID,96.3457,VALID,-0.0849042,VALID,18.8752,VALID,142,VALID,1.04541,
2002-02-06, 03:07:00,VALID,917.13,VALID,0,VALID,96.3609,VALID,-0.0679233,VALID,18.8651,VALID,145,VALID,0.673277,
2002-02-06, 03:08:00,VALID,917.112,VALID,0,VALID,96.3164,VALID,-0.0509425,VALID,18.8524,VALID,141,VALID,0.378348,
2002-02-06, 03:09:00,VALID,917.101,VALID,0,VALID,96.3393,VALID,0,VALID,18.8459,VALID,138,VALID,0.538851,
2002-02-06, 03:10:00,VALID,917.092,VALID,0,VALID,96.2745,VALID,-0.0339617,VALID,18.8266,VALID,128,VALID,0.391774,
2002-02-06, 03:11:00,VALID,917.093,VALID,0,VALID,96.3177,VALID,-0.0849042,VALID,18.791,VALID,131,VALID,0.259502,
2002-02-06, 03:12:00,VALID,917.091,VALID,0,VALID,96.3253,VALID,-0.0339617,VALID,18.7682,VALID,128,VALID,0.238076,
2002-02-06, 03:13:00,VALID,917.083,VALID,0,VALID,95.3831,VALID,0,VALID,18.6452,VALID,49,VALID,0.543586,
2002-02-06, 03:14:00,VALID,917.089,VALID,0,VALID,95.5662,VALID,-0.0339617,VALID,18.5356,VALID,52,VALID,0.377902,
2002-02-06, 03:15:00,VALID,917.085,VALID,0,VALID,96.7513,VALID,-0.0509425,VALID,18.5682,VALID,119,VALID,0.908784,
2002-02-06, 03:16:00,VALID,917.071,VALID,0,VALID,97.1163,VALID,-0.0679233,VALID,18.6457,VALID,148,VALID,0.681756,
2002-02-06, 03:17:00,VALID,917.059,VALID,0,VALID,97.2472,VALID,-0.0679233,VALID,18.7006,VALID,158,VALID,0.756757,
2002-02-06, 03:18:00,VALID,917.044,VALID,0,VALID,97.4062,VALID,-0.0169808,VALID,18.7423,VALID,148,VALID,0.84375,
2002-02-06, 03:19:00,VALID,917.041,VALID,0,VALID,97.2434,VALID,-0.101885,VALID,18.7714,VALID,140,VALID,0.61859,
2002-02-06, 03:20:00,VALID,917.03,VALID,0,VALID,97.0997,VALID,-0.0509425,VALID,18.7751,VALID,138,VALID,0.558036,
2002-02-06, 03:21:00,VALID,917.038,VALID,0,VALID,96.9471,VALID,-0.0679233,VALID,18.7523,VALID,136,VALID,0.457559,
2002-02-06, 03:22:00,VALID,917.034,VALID,0,VALID,96.8454,VALID,-0.101885,VALID,18.7359,VALID,114,VALID,0.399586,
2002-02-06, 03:23:00,VALID,917.04,VALID,0,VALID,96.8467,VALID,-0.0169808,VALID,18.7271,VALID,119,VALID,0.551943,
2002-02-06, 03:24:00,VALID,917.044,VALID,0,VALID,96.9242,VALID,0.0339617,VALID,18.7024,VALID,116,VALID,0.582854,
2002-02-06, 03:25:00,VALID,917.046,VALID,0,VALID,97.0756,VALID,0,VALID,18.7063,VALID,120,VALID,0.604235,
2002-02-06, 03:26:00,VALID,917.047,VALID,0,VALID,97.0552,VALID,0.0509425,VALID,18.693,VALID,132,VALID,0.656027,
2002-02-06, 03:27:00,VALID,917.049,VALID,0,VALID,97.0336,VALID,0.0679233,VALID,18.6865,VALID,129,VALID,0.676098,
2002-02-06, 03:28:00,VALID,917.049,VALID,0,VALID,97.1417,VALID,0.101885,VALID,18.6602,VALID,140,VALID,0.882583,
2002-02-06, 03:29:00,VALID,917.027,VALID,0,VALID,97.3769,VALID,0.0339617,VALID,18.6766,VALID,140,VALID,1.21094,
2002-02-06, 03:30:00,VALID,917.025,VALID,0,VALID,97.4977,VALID,0.0339617,VALID,18.722,VALID,134,VALID,1.14941,